Time,TemperatureF,DewpointF,PressureIn,WindDirection,WindDirectionDegrees,WindSpeedMPH,WindSpeedGustMPH,Humidity,HourlyPrecipIn,Conditions,Clouds,dailyrainin,SoftwareType,DateUTC
2013-01-01 00:13:00,13.6,12.0,30.50,ESE,113,0.0,0.0,94,0.00,,,0.00,weatherlink.com 1.10,2013-01-01 08:13:00,
2013-01-01 00:28:00,14.6,14.0,30.51,ESE,113,0.0,0.0,95,0.00,,,0.00,weatherlink.com 1.10,2013-01-01 08:28:00,
2013-01-01 00:43:00,14.9,14.0,30.51,ESE,113,0.0,0.0,94,0.00,,,0.00,weatherlink.com 1.10,2013-01-01 08:43:00,
2013-01-01 00:58:00,15.4,14.0,30.51,ESE,113,0.0,0.0,94,0.00,,,0.00,weatherlink.com 1.10,2013-01-01 08:58:00,
2013-01-01 01:28:00,16.5,15.0,30.52,ESE,113,0.0,0.0,94,0.00,,,0.00,weatherlink.com 1.10,2013-01-01 09:28:00,
2013-01-01 01:43:00,17.1,16.0,30.53,ESE,113,0.0,0.0,94,0.00,,,0.00,weatherlink.com 1.10,2013-01-01 09:43:00,
2013-01-01 01:58:00,17.6,16.0,30.53,ESE,113,0.0,0.0,94,0.00,,,0.00,weatherlink.com 1.10,2013-01-01 09:58:00,
2013-01-01 02:13:00,18.1,17.0,30.55,ESE,113,0.0,0.0,95,0.00,,,0.00,weatherlink.com 1.10,2013-01-01 10:13:00,
2013-01-01 02:29:00,18.3,17.0,30.54,ESE,113,0.0,0.0,93,0.00,,,0.00,weatherlink.com 1.10,2013-01-01 10:29:00,
2013-01-01 02:44:00,18.6,17.0,30.54,ESE,113,0.0,0.0,93,0.00,,,0.00,weatherlink.com 1.10,2013-01-01 10:44:00,
2013-01-01 02:59:00,18.4,17.0,30.55,ESE,113,0.0,0.0,93,0.00,,,0.00,weatherlink.com 1.10,2013-01-01 10:59:00,
2013-01-01 03:14:00,18.6,17.0,30.52,ESE,113,0.0,0.0,94,0.00,,,0.00,weatherlink.com 1.10,2013-01-01 11:14:00,
2013-01-01 03:29:00,18.7,17.0,30.54,ESE,113,0.0,0.0,93,0.00,,,0.00,weatherlink.com 1.10,2013-01-01 11:29:00,
2013-01-01 03:44:00,18.9,18.0,30.54,ESE,113,0.0,0.0,94,0.00,,,0.00,weatherlink.com 1.10,2013-01-01 11:44:00,
2013-01-01 03:59:00,19.0,18.0,30.54,ESE,113,0.0,0.0,94,0.00,,,0.00,weatherlink.com 1.10,2013-01-01 11:59:00,
2013-01-01 04:14:00,19.2,18.0,30.55,ESE,113,0.0,0.0,94,0.00,,,0.00,weatherlink.com 1.10,2013-01-01 12:14:00,
2013-01-01 04:29:00,19.6,18.0,30.55,ESE,113,0.0,0.0,94,0.00,,,0.00,weatherlink.com 1.10,2013-01-01 12:29:00,
2013-01-01 04:44:00,19.6,18.0,30.56,ESE,113,0.0,0.0,93,0.00,,,0.00,weatherlink.com 1.10,2013-01-01 12:44:00,
2013-01-01 04:59:00,19.7,18.0,30.57,ESE,113,0.0,0.0,94,0.00,,,0.00,weatherlink.com 1.10,2013-01-01 12:59:00,
2013-01-01 05:14:00,19.9,19.0,30.57,ESE,113,0.0,0.0,94,0.00,,,0.00,weatherlink.com 1.10,2013-01-01 13:14:00,
2013-01-01 05:29:00,20.2,19.0,30.58,ESE,113,0.0,0.0,94,0.00,,,0.00,weatherlink.com 1.10,2013-01-01 13:29:00,
2013-01-01 05:44:00,20.2,19.0,30.58,ESE,113,0.0,0.0,94,0.00,,,0.00,weatherlink.com 1.10,2013-01-01 13:44:00,
2013-01-01 05:59:00,20.2,19.0,30.59,ESE,113,0.0,0.0,94,0.00,,,0.00,weatherlink.com 1.10,2013-01-01 13:59:00,
2013-01-01 06:14:00,20.3,19.0,30.59,ESE,113,0.0,0.0,94,0.00,,,0.00,weatherlink.com 1.10,2013-01-01 14:14:00,
2013-01-01 06:29:00,20.4,19.0,30.60,ESE,113,0.0,0.0,95,0.00,,,0.00,weatherlink.com 1.10,2013-01-01 14:29:00,
2013-01-01 06:44:00,20.6,19.0,30.59,ESE,113,0.0,0.0,94,0.00,,,0.00,weatherlink.com 1.10,2013-01-01 14:44:00,
2013-01-01 06:59:00,20.8,19.0,30.59,ESE,113,0.0,0.0,94,0.00,,,0.00,weatherlink.com 1.10,2013-01-01 14:59:00,
2013-01-01 07:14:00,21.0,20.0,30.59,ESE,113,0.0,0.0,95,0.00,,,0.00,weatherlink.com 1.10,2013-01-01 15:14:00,
2013-01-01 07:29:00,20.9,20.0,30.59,ESE,113,0.0,0.0,94,0.00,,,0.00,weatherlink.com 1.10,2013-01-01 15:29:00,
2013-01-01 07:44:00,21.1,20.0,30.59,ESE,113,0.0,0.0,95,0.00,,,0.00,weatherlink.com 1.10,2013-01-01 15:44:00,
2013-01-01 07:59:00,21.1,20.0,30.60,ESE,113,0.0,0.0,94,0.00,,,0.00,weatherlink.com 1.10,2013-01-01 15:59:00,
2013-01-01 08:14:00,21.2,20.0,30.60,ESE,113,0.0,0.0,95,0.00,,,0.00,weatherlink.com 1.10,2013-01-01 16:14:00,
2013-01-01 08:29:00,21.0,20.0,30.61,ESE,113,0.0,0.0,94,0.00,,,0.00,weatherlink.com 1.10,2013-01-01 16:29:00,
2013-01-01 08:44:00,21.2,20.0,30.61,ESE,113,0.0,0.0,95,0.00,,,0.00,weatherlink.com 1.10,2013-01-01 16:44:00,
2013-01-01 08:59:00,21.5,20.0,30.62,ESE,113,0.0,0.0,94,0.00,,,0.00,weatherlink.com 1.10,2013-01-01 16:59:00,
2013-01-01 09:14:00,21.7,20.0,30.62,ESE,113,0.0,0.0,94,0.00,,,0.00,weatherlink.com 1.10,2013-01-01 17:14:00,
2013-01-01 09:29:00,21.6,20.0,30.62,ESE,113,0.0,0.0,95,0.00,,,0.00,weatherlink.com 1.10,2013-01-01 17:29:00,
2013-01-01 09:44:00,22.1,21.0,30.63,ESE,113,0.0,0.0,94,0.00,,,0.00,weatherlink.com 1.10,2013-01-01 17:44:00,
2013-01-01 09:59:00,22.3,21.0,30.63,ESE,113,0.0,0.0,94,0.00,,,0.00,weatherlink.com 1.10,2013-01-01 17:59:00,
2013-01-01 10:14:00,22.4,21.0,30.64,ESE,113,0.0,0.0,93,0.00,,,0.00,weatherlink.com 1.10,2013-01-01 18:14:00,
2013-01-01 10:29:00,22.6,21.0,30.63,ESE,113,0.0,0.0,94,0.00,,,0.00,weatherlink.com 1.10,2013-01-01 18:29:00,
2013-01-01 10:44:00,23.1,21.0,30.64,ESE,113,0.0,0.0,93,0.00,,,0.00,weatherlink.com 1.10,2013-01-01 18:44:00,
2013-01-01 10:59:00,23.9,22.0,30.63,ESE,113,0.0,0.0,92,0.00,,,0.00,weatherlink.com 1.10,2013-01-01 18:59:00,
2013-01-01 11:14:00,24.5,23.0,30.63,ESE,113,0.0,0.0,92,0.00,,,0.00,weatherlink.com 1.10,2013-01-01 19:14:00,
2013-01-01 11:29:00,24.0,22.0,30.63,ESE,113,0.0,0.0,90,0.00,,,0.00,weatherlink.com 1.10,2013-01-01 19:29:00,
2013-01-01 11:44:00,23.8,21.0,30.63,ESE,113,0.0,0.0,90,0.00,,,0.00,weatherlink.com 1.10,2013-01-01 19:44:00,
2013-01-01 11:59:00,23.9,21.0,30.63,SSW,207,0.0,0.0,90,0.00,,,0.00,weatherlink.com 1.10,2013-01-01 19:59:00,
2013-01-01 12:14:00,24.0,22.0,30.64,SSW,207,0.0,0.0,90,0.00,,,0.00,weatherlink.com 1.10,2013-01-01 20:14:00,
2013-01-01 12:29:00,24.2,22.0,30.63,SSW,207,0.0,0.0,89,0.00,,,0.00,weatherlink.com 1.10,2013-01-01 20:29:00,
2013-01-01 12:44:00,24.3,22.0,30.62,SSW,207,0.0,0.0,89,0.00,,,0.00,weatherlink.com 1.10,2013-01-01 20:44:00,
2013-01-01 12:59:00,24.5,22.0,30.62,SSW,207,0.0,0.0,88,0.00,,,0.00,weatherlink.com 1.10,2013-01-01 20:59:00,
2013-01-01 13:14:00,24.5,22.0,30.63,SSW,207,0.0,0.0,89,0.00,,,0.00,weatherlink.com 1.10,2013-01-01 21:14:00,
2013-01-01 13:29:00,24.4,22.0,30.63,SSW,206,0.0,0.0,89,0.00,,,0.00,weatherlink.com 1.10,2013-01-01 21:29:00,
2013-01-01 13:44:00,24.2,22.0,30.63,SSW,207,0.0,0.0,90,0.00,,,0.00,weatherlink.com 1.10,2013-01-01 21:44:00,
2013-01-01 13:59:00,24.3,22.0,30.64,SSW,207,0.0,0.0,89,0.00,,,0.00,weatherlink.com 1.10,2013-01-01 21:59:00,
2013-01-01 14:14:00,24.3,22.0,30.64,SSW,207,0.0,0.0,90,0.00,,,0.00,weatherlink.com 1.10,2013-01-01 22:14:00,
2013-01-01 14:29:00,24.2,22.0,30.64,SSW,207,0.0,0.0,90,0.00,,,0.00,weatherlink.com 1.10,2013-01-01 22:29:00,
2013-01-01 14:44:00,24.0,22.0,30.64,SSW,207,0.0,0.0,90,0.00,,,0.00,weatherlink.com 1.10,2013-01-01 22:44:00,
2013-01-01 14:59:00,24.0,22.0,30.64,SSW,207,0.0,0.0,91,0.00,,,0.00,weatherlink.com 1.10,2013-01-01 22:59:00,
2013-01-01 15:15:00,24.0,22.0,30.64,SSW,207,0.0,0.0,90,0.00,,,0.00,weatherlink.com 1.10,2013-01-01 23:15:00,
2013-01-01 15:30:00,23.9,21.0,30.64,SSW,206,0.0,0.0,90,0.00,,,0.00,weatherlink.com 1.10,2013-01-01 23:30:00,
2013-01-01 15:45:00,23.9,22.0,30.65,SSW,207,0.0,0.0,91,0.00,,,0.00,weatherlink.com 1.10,2013-01-01 23:45:00,
2013-01-01 16:00:00,23.9,22.0,30.64,SSW,207,0.0,0.0,92,0.00,,,0.00,weatherlink.com 1.10,2013-01-02 00:00:00,
2013-01-01 16:15:00,23.9,22.0,30.64,SSW,206,0.0,0.0,92,0.00,,,0.00,weatherlink.com 1.10,2013-01-02 00:15:00,
2013-01-01 16:30:00,23.6,22.0,30.64,SSW,207,0.0,0.0,92,0.00,,,0.00,weatherlink.com 1.10,2013-01-02 00:30:00,
2013-01-01 16:45:00,23.4,22.0,30.65,SSW,207,0.0,0.0,93,0.00,,,0.00,weatherlink.com 1.10,2013-01-02 00:45:00,
2013-01-01 17:00:00,23.5,22.0,30.65,SSW,206,0.0,0.0,93,0.00,,,0.00,weatherlink.com 1.10,2013-01-02 01:00:00,
2013-01-01 17:15:00,23.6,22.0,30.66,SSW,207,0.0,0.0,92,0.00,,,0.00,weatherlink.com 1.10,2013-01-02 01:15:00,
2013-01-01 17:30:00,23.4,22.0,30.66,SSW,207,0.0,0.0,93,0.00,,,0.00,weatherlink.com 1.10,2013-01-02 01:30:00,
2013-01-01 17:45:00,23.3,22.0,30.65,SSW,207,0.0,0.0,93,0.00,,,0.00,weatherlink.com 1.10,2013-01-02 01:45:00,
2013-01-01 18:00:00,23.3,22.0,30.65,SSW,206,0.0,0.0,94,0.00,,,0.00,weatherlink.com 1.10,2013-01-02 02:00:00,
2013-01-01 18:15:00,23.1,22.0,30.65,SSW,206,0.0,0.0,94,0.00,,,0.00,weatherlink.com 1.10,2013-01-02 02:15:00,
2013-01-01 18:30:00,23.1,22.0,30.64,SSW,207,0.0,0.0,94,0.00,,,0.00,weatherlink.com 1.10,2013-01-02 02:30:00,
2013-01-01 18:45:00,23.2,22.0,30.64,SSW,207,0.0,0.0,94,0.00,,,0.00,weatherlink.com 1.10,2013-01-02 02:45:00,
2013-01-01 19:00:00,23.0,22.0,30.64,SSW,207,0.0,0.0,94,0.00,,,0.00,weatherlink.com 1.10,2013-01-02 03:00:00,
2013-01-01 19:15:00,22.9,22.0,30.64,SSW,207,0.0,0.0,94,0.00,,,0.00,weatherlink.com 1.10,2013-01-02 03:15:00,
2013-01-01 19:30:00,23.3,22.0,30.65,SSW,207,0.0,0.0,96,0.00,,,0.00,weatherlink.com 1.10,2013-01-02 03:30:00,
2013-01-01 19:45:00,23.1,22.0,30.65,SSW,207,0.0,0.0,94,0.00,,,0.00,weatherlink.com 1.10,2013-01-02 03:45:00,
2013-01-01 20:00:00,22.9,22.0,30.65,SSW,207,0.0,0.0,95,0.00,,,0.00,weatherlink.com 1.10,2013-01-02 04:00:00,
2013-01-01 20:15:00,22.9,22.0,30.65,SSW,207,0.0,0.0,95,0.00,,,0.00,weatherlink.com 1.10,2013-01-02 04:15:00,
2013-01-01 20:30:00,22.8,22.0,30.64,SSW,207,0.0,0.0,95,0.00,,,0.00,weatherlink.com 1.10,2013-01-02 04:30:00,
2013-01-01 20:45:00,22.9,22.0,30.65,SSW,207,0.0,0.0,94,0.00,,,0.00,weatherlink.com 1.10,2013-01-02 04:45:00,
2013-01-01 21:15:00,22.9,22.0,30.65,SSW,207,0.0,0.0,94,0.00,,,0.00,weatherlink.com 1.10,2013-01-02 05:15:00,
2013-01-01 21:30:00,22.9,22.0,30.65,SSW,207,0.0,0.0,94,0.00,,,0.00,weatherlink.com 1.10,2013-01-02 05:30:00,
2013-01-01 21:45:00,22.9,22.0,30.66,SSW,207,0.0,0.0,94,0.00,,,0.00,weatherlink.com 1.10,2013-01-02 05:45:00,
2013-01-01 22:00:00,23.0,21.0,30.65,SSW,207,0.0,0.0,93,0.00,,,0.00,weatherlink.com 1.10,2013-01-02 06:00:00,
2013-01-01 22:15:00,23.1,21.0,30.65,SSW,207,0.0,0.0,93,0.00,,,0.00,weatherlink.com 1.10,2013-01-02 06:15:00,
2013-01-01 22:30:00,22.9,22.0,30.65,SSW,207,0.0,0.0,94,0.00,,,0.00,weatherlink.com 1.10,2013-01-02 06:30:00,
2013-01-01 22:45:00,22.7,21.0,30.65,SSW,207,0.0,0.0,94,0.00,,,0.00,weatherlink.com 1.10,2013-01-02 06:45:00,
2013-01-01 23:00:00,22.9,22.0,30.64,SSW,207,0.0,0.0,95,0.00,,,0.00,weatherlink.com 1.10,2013-01-02 07:00:00,
2013-01-01 23:15:00,22.8,21.0,30.64,SSW,206,0.0,0.0,94,0.00,,,0.00,weatherlink.com 1.10,2013-01-02 07:15:00,
2013-01-01 23:30:00,22.7,21.0,30.64,SSW,206,0.0,0.0,94,0.00,,,0.00,weatherlink.com 1.10,2013-01-02 07:30:00,
2013-01-01 23:45:00,22.7,22.0,30.64,SSW,207,0.0,0.0,95,0.00,,,0.00,weatherlink.com 1.10,2013-01-02 07:45:00,